When you browse on this site, cookies collect data to enhance your experience and personalize the content and advertising you see.
Visit our Privacy Policy to learn more. By continuing to use the site, you agree to this use of cookies and data.
  • In Belgien
  • Länderverzeichnis
  • Für 7 Tage
  • Wassertemperatur
  • Satellitenkarten
  • Wetterkarte
  • Widgets
  • user-avatar
    Anmelden

    Stündliche Wetter Brisbane

    Heute, 10 Dezember, Montag

    Zeit Temperatur Niederschläge Wind Luftdruck Luftfeuchtigkeit
    00:00 +21°C° 0 mm 3 m/S 761 mmHg 89%
    01:00 +21°C° 0 mm 2 m/S 761 mmHg 90%
    02:00 +21°C° 0 mm 2 m/S 760 mmHg 90%
    03:00 +21°C° 0 mm 2 m/S 760 mmHg 91%
    04:00 +20°C° 0 mm 2 m/S 760 mmHg 92%
    05:00 +23°C° 0 mm 2 m/S 760 mmHg 86%
    06:00 +24°C° 0 mm 2 m/S 760 mmHg 79%
    07:00 +26°C° 0 mm 2 m/S 760 mmHg 73%
    08:00 +27°C° 0 mm 2 m/S 760 mmHg 67%
    09:00 +28°C° 0 mm 2 m/S 760 mmHg 60%
    10:00 +30°C° 0 mm 3 m/S 760 mmHg 53%
    11:00 +30°C° 0 mm 3 m/S 760 mmHg 51%
    12:00 +30°C° 0 mm 3 m/S 759 mmHg 50%
    13:00 +31°C° 0 mm 3 m/S 759 mmHg 48%
    14:00 +31°C° 0 mm 3 m/S 759 mmHg 48%
    15:00 +32°C° 0 mm 4 m/S 758 mmHg 49%
    16:00 +32°C° 0 mm 4 m/S 758 mmHg 49%
    17:00 +29°C° 0 mm 4 m/S 758 mmHg 57%
    18:00 +27°C° 0 mm 3 m/S 759 mmHg 66%
    19:00 +25°C° 0 mm 3 m/S 759 mmHg 74%
    20:00 +24°C° 0 mm 3 m/S 760 mmHg 79%
    21:00 +23°C° 0 mm 2 m/S 760 mmHg 84%
    22:00 +23°C° 0 mm 2 m/S 761 mmHg 89%
    23:00 +21°C° 0 mm 2 m/S 760 mmHg 90%

    Morgen, 11 Dezember, Dienstag

    Zeit Temperatur Niederschläge Wind Luftdruck Luftfeuchtigkeit
    00:00 +22°C° 0 mm 1 m/S 760 mmHg 91%
    01:00 +22°C° 0 mm 1 m/S 760 mmHg 91%
    02:00 +22°C° 0 mm 1 m/S 760 mmHg 91%
    03:00 +22°C° 0 mm 1 m/S 759 mmHg 92%
    04:00 +22°C° 0 mm 1 m/S 759 mmHg 92%
    05:00 +23°C° 0 mm 1 m/S 759 mmHg 86%
    06:00 +24°C° 0 mm 1 m/S 760 mmHg 81%
    07:00 +25°C° 0 mm 1 m/S 760 mmHg 76%
    08:00 +27°C° 0 mm 1 m/S 760 mmHg 67%
    09:00 +28°C° 0 mm 1 m/S 760 mmHg 59%
    10:00 +30°C° 0 mm 2 m/S 760 mmHg 51%
    11:00 +31°C° 0 mm 2 m/S 760 mmHg 47%
    12:00 +33°C° 0 mm 3 m/S 759 mmHg 42%
    13:00 +34°C° 0 mm 3 m/S 759 mmHg 38%
    14:00 +33°C° 0 mm 4 m/S 758 mmHg 42%
    15:00 +32°C° 0 mm 4 m/S 758 mmHg 45%
    16:00 +30°C° 0 mm 4 m/S 757 mmHg 49%
    17:00 +29°C° 0 mm 4 m/S 758 mmHg 57%
    18:00 +27°C° 0 mm 3 m/S 758 mmHg 65%
    19:00 +25°C° 0 mm 3 m/S 759 mmHg 73%
    20:00 +24°C° 0 mm 3 m/S 759 mmHg 77%
    21:00 +24°C° 0 mm 2 m/S 760 mmHg 82%
    22:00 +23°C° 0 mm 2 m/S 761 mmHg 87%
    23:00 +23°C° 0 mm 2 m/S 760 mmHg 87%

    übermorgen, 12 Dezember, Mittwoch

    Zeit Temperatur Niederschläge Wind Luftdruck Luftfeuchtigkeit
    00:00 +23°C° 0 mm 2 m/S 760 mmHg 88%
    01:00 +23°C° 0 mm 1 m/S 759 mmHg 88%
    02:00 +22°C° 0 mm 1 m/S 759 mmHg 89%
    03:00 +22°C° 0 mm 1 m/S 758 mmHg 90%
    04:00 +22°C° 0 mm 1 m/S 758 mmHg 91%
    05:00 +23°C° 0 mm 1 m/S 758 mmHg 85%
    06:00 +25°C° 0 mm 1 m/S 759 mmHg 79%
    07:00 +26°C° 0 mm 1 m/S 759 mmHg 72%
    08:00 +27°C° 0 mm 2 m/S 759 mmHg 68%
    09:00 +28°C° 0 mm 2 m/S 759 mmHg 63%
    10:00 +29°C° 0 mm 2 m/S 759 mmHg 58%
    11:00 +30°C° 0 mm 3 m/S 758 mmHg 54%
    12:00 +31°C° 0 mm 3 m/S 757 mmHg 51%
    13:00 +33°C° 0 mm 4 m/S 757 mmHg 47%
    14:00 +32°C° 0 mm 4 m/S 757 mmHg 49%
    15:00 +32°C° 0 mm 4 m/S 756 mmHg 51%
    16:00 +30°C° 0 mm 4 m/S 756 mmHg 53%
    17:00 +28°C° 0.1 mm 4 m/S 756 mmHg 60%
    18:00 +26°C° 0.1 mm 4 m/S 756 mmHg 67%
    19:00 +25°C° 0.1 mm 4 m/S 756 mmHg 75%
    20:00 +24°C° 0 mm 3 m/S 757 mmHg 78%
    21:00 +22°C° 0 mm 3 m/S 757 mmHg 81%
    22:00 +22°C° 0 mm 3 m/S 758 mmHg 84%
    23:00 +21°C° 0 mm 2 m/S 757 mmHg 86%

    13 Dezember, Donnerstag

    Zeit Temperatur Niederschläge Wind Luftdruck Luftfeuchtigkeit
    00:00 +21°C° 0 mm 2 m/S 757 mmHg 87%
    01:00 +21°C° 0 mm 2 m/S 756 mmHg 89%
    02:00 +21°C° 0 mm 2 m/S 756 mmHg 89%
    03:00 +20°C° 0 mm 2 m/S 756 mmHg 90%
    04:00 +20°C° 0 mm 2 m/S 756 mmHg 91%
    05:00 +21°C° 0 mm 2 m/S 756 mmHg 86%
    06:00 +23°C° 0 mm 2 m/S 756 mmHg 82%
    07:00 +24°C° 0 mm 3 m/S 756 mmHg 78%
    08:00 +26°C° 0 mm 3 m/S 756 mmHg 67%
    09:00 +29°C° 0 mm 3 m/S 755 mmHg 56%
    10:00 +33°C° 0 mm 3 m/S 755 mmHg 44%
    11:00 +33°C° 0 mm 4 m/S 754 mmHg 43%
    12:00 +34°C° 0 mm 5 m/S 753 mmHg 42%
    13:00 +34°C° 0 mm 5 m/S 753 mmHg 41%
    14:00 +34°C° 0 mm 6 m/S 752 mmHg 45%
    15:00 +33°C° 0 mm 6 m/S 752 mmHg 49%
    16:00 +32°C° 0 mm 6 m/S 751 mmHg 53%
    17:00 +30°C° 0 mm 6 m/S 752 mmHg 60%
    18:00 +28°C° 0 mm 6 m/S 752 mmHg 66%
    19:00 +27°C° 0 mm 6 m/S 752 mmHg 72%
    20:00 +27°C° 0.1 mm 6 m/S 752 mmHg 73%
    21:00 +26°C° 0.1 mm 6 m/S 753 mmHg 74%
    22:00 +26°C° 0.1 mm 6 m/S 753 mmHg 75%
    23:00 +26°C° 0 mm 6 m/S 752 mmHg 75%

    14 Dezember, Freitag

    Zeit Temperatur Niederschläge Wind Luftdruck Luftfeuchtigkeit
    00:00 +24°C° 0 mm 6 m/S 752 mmHg 75%
    01:00 +24°C° 0 mm 6 m/S 751 mmHg 75%
    02:00 +25°C° 0.5 mm 5 m/S 751 mmHg 78%
    03:00 +23°C° 0.5 mm 5 m/S 751 mmHg 82%
    04:00 +23°C° 0.5 mm 5 m/S 751 mmHg 85%
    05:00 +25°C° 0.6 mm 4 m/S 751 mmHg 84%
    06:00 +25°C° 0.6 mm 4 m/S 752 mmHg 82%
    07:00 +26°C° 0.6 mm 4 m/S 752 mmHg 81%
    08:00 +27°C° 0.2 mm 4 m/S 752 mmHg 76%
    09:00 +28°C° 0.2 mm 4 m/S 752 mmHg 72%
    10:00 +30°C° 0.2 mm 4 m/S 752 mmHg 67%
    11:00 +32°C° 0.3 mm 5 m/S 751 mmHg 61%
    12:00 +34°C° 0.3 mm 5 m/S 750 mmHg 55%
    13:00 +36°C° 0.3 mm 6 m/S 750 mmHg 50%
    14:00 +34°C° 1.2 mm 6 m/S 750 mmHg 55%
    15:00 +33°C° 1.2 mm 6 m/S 750 mmHg 60%
    16:00 +32°C° 1.2 mm 6 m/S 750 mmHg 66%
    17:00 +30°C° 0.9 mm 6 m/S 750 mmHg 72%
    18:00 +29°C° 0.9 mm 6 m/S 750 mmHg 77%
    19:00 +27°C° 0.9 mm 6 m/S 751 mmHg 83%
    20:00 +27°C° 2.2 mm 6 m/S 751 mmHg 84%
    21:00 +26°C° 2.2 mm 6 m/S 752 mmHg 86%
    22:00 +26°C° 2.2 mm 5 m/S 752 mmHg 87%
    23:00 +25°C° 0.7 mm 5 m/S 752 mmHg 87%

    15 Dezember, Samstag

    Zeit Temperatur Niederschläge Wind Luftdruck Luftfeuchtigkeit
    00:00 +25°C° 0.7 mm 4 m/S 752 mmHg 87%
    01:00 +24°C° 0.7 mm 3 m/S 751 mmHg 87%
    02:00 +24°C° 0.5 mm 3 m/S 751 mmHg 87%
    03:00 +24°C° 0.5 mm 3 m/S 751 mmHg 87%
    04:00 +23°C° 0.5 mm 2 m/S 751 mmHg 87%
    05:00 +24°C° 0 mm 3 m/S 752 mmHg 85%
    06:00 +25°C° 0 mm 3 m/S 752 mmHg 83%
    07:00 +26°C° 0 mm 3 m/S 753 mmHg 81%
    08:00 +28°C° 0.3 mm 3 m/S 753 mmHg 76%
    09:00 +29°C° 0.3 mm 4 m/S 753 mmHg 71%
    10:00 +32°C° 0.3 mm 4 m/S 753 mmHg 67%
    11:00 +32°C° 0.5 mm 5 m/S 752 mmHg 65%
    12:00 +33°C° 0.5 mm 5 m/S 751 mmHg 63%
    13:00 +34°C° 0.5 mm 6 m/S 751 mmHg 62%
    14:00 +33°C° 0.4 mm 6 m/S 751 mmHg 62%
    15:00 +33°C° 0.4 mm 7 m/S 750 mmHg 62%
    16:00 +33°C° 0.4 mm 7 m/S 750 mmHg 62%
    17:00 +32°C° 0.4 mm 7 m/S 751 mmHg 68%
    18:00 +30°C° 0.4 mm 7 m/S 751 mmHg 73%
    19:00 +28°C° 0.4 mm 7 m/S 752 mmHg 79%
    20:00 +28°C° 0.2 mm 6 m/S 752 mmHg 81%
    21:00 +27°C° 0.2 mm 6 m/S 752 mmHg 83%
    22:00 +27°C° 0.2 mm 5 m/S 753 mmHg 85%
    23:00 +26°C° 0.3 mm 5 m/S 752 mmHg 87%
    Mehr zeigen